Location: Newark
(44.4156°N, 12.1972°E)
Time: 10:16:41
(UTC+00:00)

STARLINK-1069 - Pass Details

Date: 02 February 2020
Orbit: 349 x 350 km, 53.0° (Epoch: 22 February)

Event Time Altitude Azimuth Distance (km) Brightness Sun altitude
Rises 17:50:27 0° 293° (WNW) 2,163 7.7 -16.2°
Reaches altitude 10° 17:52:48 10° 275° (W) 1,316 6.8 -16.6°
Maximum altitude 17:55:00 19° 226° (SW) 902 5.4 -17.0°
Drops below altitude 10° 17:57:12 10° 177° (S) 1,309 5.6 -17.4°
Enters shadow 17:58:08 - 167° (SSE) 1,624 6.0 -17.5°
